Weather History for EGDR - November, 2012

Change the Weather History Date:

Saturday, November 24, 2012

  Actual Average Record
Temperature  
Mean Temperature 46 °F -  
Max Temperature 52 °F 48 °F 57 °F (2011)
Min Temperature 41 °F 41 °F 30 °F (2013)
Degree Days  
Heating Degree Days 18    
Moisture  
Dew Point 47 °F    
Average Humidity 96    
Maximum Humidity 100    
Minimum Humidity 86    
Precipitation  
Precipitation 1.10 in - - ()
Sea Level Pressure  
Sea Level Pressure 29.62 in    
Wind  
Wind Speed 13 mph ()    
Max Wind Speed 33 mph    
Max Gust Speed 55 mph    
Visibility 4.1 miles    
Events Rain    
Averages and records for this station are not official NWS values.
T = Trace of Precipitation, MM = Missing Value Source: Averaged Metar Reports

Daily Weather History Graph

Daily Weather History Graph

Search for Another Location

Airport or City:

Trip Planner

Search our weather history database for the weather conditions in past years. The results will help you decide how hot, cold, wet, or windy it might be!

Date:

Astronomy

Nov. 24, 2012 Rise Set
Actual Time 7:48 AM GMT 4:26 PM GMT
Civil Twilight 7:11 AM GMT 5:03 PM GMT
Nautical Twilight 6:31 AM GMT 5:43 PM GMT
Astronomical Twilight 5:52 AM GMT 6:22 PM GMT
Moon 2:20 PM GMT (11/24) 3:33 AM GMT (11/24)
Length of Visible Light 9h 51m
Length of Day
8h 37m
Waxing Gibbous, 85% of the Moon is Illuminated
Nov 24
Waxing Gibbous
Nov 28
Full
Dec 6
Last Quarter
Dec 13
New
Dec 20
First Quarter

Hourly Weather History & Observations

Time (GMT) Temp. Windchill Dew Point Humidity Pressure Visibility Wind Dir Wind Speed Gust Speed Precip Events Conditions
12:50 AM 41.0 °F 34.7 °F 39.2 °F 93% 29.92 in 6.2 mi ENE 10.4 mph - N/A   Mostly Cloudy
1:50 AM 41.0 °F 34.3 °F 41.0 °F 100% 29.92 in 6.2 mi ENE 11.5 mph - N/A   Mostly Cloudy
2:50 AM 44 °F - 43 °F 96% 29.90 in 16 mi East 11.5 mph - -   Partly Cloudy
2:50 AM 44.6 °F 38.8 °F 42.8 °F 93% 29.89 in 6.2 mi East 11.5 mph - N/A   Mostly Cloudy
3:50 AM 44.6 °F 38.8 °F 42.8 °F 93% 29.86 in 6.2 mi ENE 11.5 mph - N/A   Mostly Cloudy
4:50 AM 44.6 °F 39.2 °F 44.6 °F 100% 29.83 in 3.1 mi East 10.4 mph - N/A Rain Light Rain
5:50 AM 46 °F - 46 °F 100% 29.82 in 6 mi East 6.9 mph - - Rain Light Rain
5:50 AM 46.4 °F 42.9 °F 46.4 °F 100% 29.80 in 5.6 mi East 6.9 mph - N/A Rain Light Rain
6:50 AM 48.2 °F - 46.4 °F 93% 29.77 in 5.6 mi ESE 15.0 mph - N/A Rain Rain
7:50 AM 48.2 °F - 46.4 °F 93% 29.74 in 3.1 mi ESE 18.4 mph - N/A Rain Rain
8:50 AM 49 °F - 49 °F 98% 29.74 in 3 mi ESE 13.8 mph - - Rain Rain
8:50 AM 50.0 °F - 48.2 °F 94% 29.71 in 3.1 mi ESE 13.8 mph - N/A Rain Rain
9:50 AM 50.0 °F - 48.2 °F 94% 29.68 in 3.1 mi ESE 11.5 mph - N/A Rain Rain
10:50 AM 50.0 °F - 48.2 °F 94% 29.68 in 2.5 mi SE 12.7 mph - N/A Rain Rain
11:50 AM 49 °F - 49 °F 99% 29.64 in 3 mi ESE 10.4 mph - - Rain Rain
11:50 AM 50.0 °F - 48.2 °F 94% 29.62 in 3.1 mi ESE 10.4 mph - N/A Rain Rain
12:50 PM 51.8 °F - 50.0 °F 94% 29.56 in 3.1 mi SE 12.7 mph - N/A Rain Rain
1:50 PM 51.8 °F - 50.0 °F 94% 29.53 in 1.2 mi ESE 16.1 mph - N/A Rain Rain
2:50 PM 51 °F - 51 °F 99% 29.48 in 1 mi ESE 19.6 mph - - Rain Rain
2:50 PM 51.8 °F - 51.8 °F 100% 29.47 in 0.8 mi ESE 19.6 mph 32.2 mph N/A Rain Rain
3:50 PM 51.8 °F - 51.8 °F 100% 29.42 in 0.7 mi ESE 17.3 mph 28.8 mph N/A Rain Rain
4:50 PM 51.8 °F - 51.8 °F 100% 29.39 in 0.6 mi East 17.3 mph - N/A Rain Rain
5:50 PM 52 °F - 52 °F 98% 29.34 in 1 mi East 13.8 mph - - Rain Rain
5:50 PM 51.8 °F - 51.8 °F 100% 29.33 in 0.7 mi East 13.8 mph - N/A Rain Rain
6:50 PM 51.8 °F - 51.8 °F 100% 29.30 in 0.9 mi ENE 16.1 mph - N/A Rain Rain
7:50 PM 51.8 °F - 51.8 °F 100% 29.30 in 5.0 mi NNE 16.1 mph - N/A   Scattered Clouds
8:50 PM 49 °F - 48 °F 93% 29.42 in 2 mi NNW 33.4 mph - - Rain Light Rain
8:50 PM 48.2 °F - 48.2 °F 100% 29.42 in 1.6 mi NNW 33.4 mph 55.2 mph N/A Rain Light Rain
9:50 PM 48.2 °F - 46.4 °F 93% 29.47 in 6.2 mi NW 26.5 mph 47.2 mph N/A   Haze
10:50 PM 46.4 °F 37.7 °F 44.6 °F 93% 29.56 in 6.2 mi NW 26.5 mph 46.0 mph N/A   Haze
11:50 PM 46 °F - 43 °F 86% 29.64 in 12 mi NW 25.3 mph - -   Partly Cloudy
11:50 PM 46.4 °F 37.9 °F 42.8 °F 87% 29.62 in 6.2 mi NW 25.3 mph 42.6 mph N/A   Mostly Cloudy